Location: Santa Barbara
(34.4500°N, 119.7700°W)
Time: 15:41:15
(UTC-07:00)

Cosmos 1626 Rocket - Visible Passes

Search period start: 27 April 2017 00:00
Search period end: 07 May 2017 00:00
Orbit: 602 x 632 km, 82.5° (Epoch: 26 April)

Date Brightness Start Highest point End Pass type
(mag) Time Alt. Az. Time Alt. Az. Time Alt. Az.
27 Apr 6.2 02:43:10 17° N 02:43:10 17° N 02:44:10 10° N visible
28 Apr 6.1 02:59:56 15° NNW 02:59:56 15° NNW 03:00:46 10° N visible
29 Apr 6.3 03:16:40 11° NNW 03:16:40 11° NNW 03:16:58 10° NNW visible
30 Apr 6.6 01:56:17 12° NNE 01:56:17 12° NNE 01:56:43 10° NNE visible
01 May 6.4 02:13:00 14° N 02:13:00 14° N 02:13:39 10° N visible
02 May 6.4 02:29:43 13° NNW 02:29:43 13° NNW 02:30:16 10° N visible
03 May 6.4 02:46:24 10° NNW 02:46:24 10° NNW 02:46:27 10° NNW visible
04 May 6.7 01:25:58 11° NNE 01:25:58 11° NNE 01:26:13 10° NNE visible
05 May 6.5 01:42:39 13° N 01:42:39 13° N 01:43:09 10° N visible
06 May 6.5 01:59:18 13° NNW 01:59:18 13° NNW 01:59:45 10° N visible
